DL2GFH-3 Weather Reports


time (UTC)temp
C
wind
direction
speed
KPH
gust
KPH
rain 1hr
cm
rain 24hr
cm
rain mn
cm
humidity
%
barometer
mb
20260507171557 18 0 0.0 0.0 0.00 0.00 0.00 37 1014.5
20260507170051 18 0 0.0 0.0 0.00 0.00 0.00 37 1014.4
20260507164547 19 0 0.0 0.0 0.00 0.00 0.00 36 1014.4
20260507163040 19 0 0.0 0.0 0.00 0.00 0.00 36 1014.4
20260507161535 19 0 0.0 0.0 0.00 0.00 0.00 36 1014.4
20260507160030 19 0 0.0 0.0 0.00 0.00 0.00 36 1014.3
20260507154524 19 0 0.0 0.0 0.00 0.00 0.00 36 1014.3
20260507153019 19 0 0.0 0.0 0.00 0.00 0.00 36 1014.4
20260507151513 20 0 0.0 0.0 0.00 0.00 0.00 35 1014.3
20260507150008 20 0 0.0 0.0 0.00 0.00 0.00 35 1014.4
20260507144503 20 0 0.0 0.0 0.00 0.00 0.00 34 1014.4
20260507142957 20 0 0.0 0.0 0.00 0.00 0.00 34 1014.5
20260507141452 20 0 0.0 0.0 0.00 0.00 0.00 34 1014.4
20260507135946 20 0 0.0 0.0 0.00 0.00 0.00 34 1014.3
20260507134441 20 0 0.0 0.0 0.00 0.00 0.00 33 1014.4
20260507132935 20 0 0.0 0.0 0.00 0.00 0.00 33 1014.5
20260507131430 21 0 0.0 0.0 0.00 0.00 0.00 33 1014.5
20260507125925 20 0 0.0 0.0 0.00 0.00 0.00 34 1014.6
20260507124419 20 0 0.0 0.0 0.00 0.00 0.00 35 1014.6
20260507122914 20 0 0.0 0.0 0.00 0.00 0.00 35 1014.6
20260507121408 19 0 0.0 0.0 0.00 0.00 0.00 36 1014.6
20260507115903 18 0 0.0 0.0 0.00 0.00 0.00 37 1014.6
20260507114358 18 0 0.0 0.0 0.00 0.00 0.00 36 1014.7
20260507112852 18 0 0.0 0.0 0.00 0.00 0.00 36 1014.5
20260507111347 19 0 0.0 0.0 0.00 0.00 0.00 35 1014.4
20260507105841 20 0 0.0 0.0 0.00 0.00 0.00 34 1014.3
20260507104336 21 0 0.0 0.0 0.00 0.00 0.00 32 1014.3
20260507102830 22 0 0.0 0.0 0.00 0.00 0.00 30 1014.3
20260507101325 22 0 0.0 0.0 0.00 0.00 0.00 29 1014.3
20260507095820 20 0 0.0 0.0 0.00 0.00 0.00 34 1014.4
20260507094314 20 0 0.0 0.0 0.00 0.00 0.00 33 1014.3
20260507092809 21 0 0.0 0.0 0.00 0.00 0.00 31 1014.2
20260507091303 22 0 0.0 0.0 0.00 0.00 0.00 29 1014.1
20260507085758 22 0 0.0 0.0 0.00 0.00 0.00 29 1013.9
20260507084253 21 0 0.0 0.0 0.00 0.00 0.00 31 1014.0
20260507082747 20 0 0.0 0.0 0.00 0.00 0.00 32 1014.0
20260507081242 18 0 0.0 0.0 0.00 0.00 0.00 35 1014.0
20260507075736 19 0 0.0 0.0 0.00 0.00 0.00 34 1014.0
20260507074231 20 0 0.0 0.0 0.00 0.00 0.00 33 1013.8
20260507072725 19 0 0.0 0.0 0.00 0.00 0.00 34 1013.7
20260507071220 18 0 0.0 0.0 0.00 0.00 0.00 35 1013.7
20260507065715 18 0 0.0 0.0 0.00 0.00 0.00 35 1013.6
20260507064209 18 0 0.0 0.0 0.00 0.00 0.00 36 1013.5
20260507062704 18 0 0.0 0.0 0.00 0.00 0.00 35 1013.5
20260507061158 18 0 0.0 0.0 0.00 0.00 0.00 35 1013.4
20260507055653 17 0 0.0 0.0 0.00 0.00 0.00 37 1013.3
20260507054148 18 0 0.0 0.0 0.00 0.00 0.00 35 1013.1
20260507052642 19 0 0.0 0.0 0.00 0.00 0.00 34 1013.0
20260507045631 16 0 0.0 0.0 0.00 0.00 0.00 38 1012.7
20260507044126 17 0 0.0 0.0 0.00 0.00 0.00 37 1012.5
20260507042621 17 0 0.0 0.0 0.00 0.00 0.00 38 1012.4
20260507041115 17 0 0.0 0.0 0.00 0.00 0.00 36 1012.3
20260507035610 18 0 0.0 0.0 0.00 0.00 0.00 34 1012.2
20260507034104 20 0 0.0 0.0 0.00 0.00 0.00 32 1012.1
20260507032559 22 0 0.0 0.0 0.00 0.00 0.00 29 1011.9
20260507031053 21 0 0.0 0.0 0.00 0.00 0.00 31 1011.8
20260507025548 17 0 0.0 0.0 0.00 0.00 0.00 38 1011.9
20260507024043 16 0 0.0 0.0 0.00 0.00 0.00 39 1011.9
20260507022537 15 0 0.0 0.0 0.00 0.00 0.00 42 1011.9
20260507021032 15 0 0.0 0.0 0.00 0.00 0.00 42 1011.9
20260507015526 15 0 0.0 0.0 0.00 0.00 0.00 42 1011.8
20260507014021 15 0 0.0 0.0 0.00 0.00 0.00 42 1011.7
20260507012516 15 0 0.0 0.0 0.00 0.00 0.00 42 1011.6
20260507011010 15 0 0.0 0.0 0.00 0.00 0.00 42 1011.6
20260507005505 15 0 0.0 0.0 0.00 0.00 0.00 42 1011.6
20260507003959 15 0 0.0 0.0 0.00 0.00 0.00 42 1011.5
20260507002454 15 0 0.0 0.0 0.00 0.00 0.00 42 1011.4
20260507000948 16 0 0.0 0.0 0.00 0.00 0.00 42 1011.4
20260506235443 16 0 0.0 0.0 0.00 0.00 0.00 42 1011.3
20260506233938 16 0 0.0 0.0 0.00 0.00 0.00 42 1011.4
20260506232432 16 0 0.0 0.0 0.00 0.00 0.00 42 1011.4
20260506230927 16 0 0.0 0.0 0.00 0.00 0.00 42 1011.3
20260506225421 16 0 0.0 0.0 0.00 0.00 0.00 42 1011.4
20260506223917 16 0 0.0 0.0 0.00 0.00 0.00 42 1011.1
20260506222411 16 0 0.0 0.0 0.00 0.00 0.00 42 1011.1
20260506220905 16 0 0.0 0.0 0.00 0.00 0.00 42 1011.2
20260506215400 16 0 0.0 0.0 0.00 0.00 0.00 41 1011.2
20260506213854 16 0 0.0 0.0 0.00 0.00 0.00 41 1011.2
20260506212349 16 0 0.0 0.0 0.00 0.00 0.00 41 1011.5
20260506210843 16 0 0.0 0.0 0.00 0.00 0.00 41 1011.3
20260506205338 16 0 0.0 0.0 0.00 0.00 0.00 41 1011.2
20260506203833 17 0 0.0 0.0 0.00 0.00 0.00 41 1010.8
20260506202327 17 0 0.0 0.0 0.00 0.00 0.00 41 1010.8
20260506200822 17 0 0.0 0.0 0.00 0.00 0.00 41 1010.7
20260506195316 17 0 0.0 0.0 0.00 0.00 0.00 40 1010.8
20260506193811 17 0 0.0 0.0 0.00 0.00 0.00 40 1010.6
20260506192306 17 0 0.0 0.0 0.00 0.00 0.00 41 1010.5
20260506190800 17 0 0.0 0.0 0.00 0.00 0.00 40 1010.4
20260506185255 17 0 0.0 0.0 0.00 0.00 0.00 41 1010.2
20260506183749 17 0 0.0 0.0 0.00 0.00 0.00 41 1010.0
20260506182244 17 0 0.0 0.0 0.00 0.00 0.00 40 1010.0
20260506180739 17 0 0.0 0.0 0.00 0.00 0.00 40 1009.8
20260506175233 17 0 0.0 0.0 0.00 0.00 0.00 40 1009.7
20260506173728 17 0 0.0 0.0 0.00 0.00 0.00 40 1009.6
20260506172222 18 0 0.0 0.0 0.00 0.00 0.00 40 1009.5